Cape Cod CGAS, MA

5:39 PM EDT on September 21, 2017 (GMT -0400)
Cape Cod Coast Guard Air Station

Weather History for KFMH - October, 2013

Change the Weather History Date:

Thursday, October 10, 2013

  Actual Average Record
Temperature  
Mean Temperature 56 °F -  
Max Temperature 64 °F 60 °F 80 °F (2011)
Min Temperature 48 °F 43 °F 35 °F (2000)
Degree Days  
Heating Degree Days 9    
Growing Degree Days 6 (Base 50)    
Moisture  
Dew Point 53 °F    
Average Humidity 87    
Maximum Humidity 94    
Minimum Humidity 71    
Precipitation  
Precipitation 0.00 in - - ()
Sea Level Pressure  
Sea Level Pressure 30.24 in    
Wind  
Wind Speed 9 mph (NE)    
Max Wind Speed 16 mph    
Max Gust Speed 21 mph    
Visibility 10 miles    
Events      
Averages and records for this station are not official NWS values.
T = Trace of Precipitation, MM = Missing Value Source: NWS Daily Summary

Daily Weather History Graph

Daily Weather History Graph

Search for Another Location

Airport or City:

Trip Planner

Search our weather history database for the weather conditions in past years. The results will help you decide how hot, cold, wet, or windy it might be!

Date:

Astronomy

Oct. 10, 2013 Rise Set
Actual Time 6:48 AM EDT 6:08 PM EDT
Civil Twilight 6:21 AM EDT 6:36 PM EDT
Nautical Twilight 5:48 AM EDT 7:08 PM EDT
Astronomical Twilight 5:16 AM EDT 7:40 PM EDT
Moon 12:40 PM EDT (10/10) 10:40 PM EDT (10/10)
Length of Visible Light 12h 15m
Length of Day
11h 19m
Waxing Crescent, 35% of the Moon is Illuminated
Oct 10
Waxing Crescent
Oct 11
First Quarter
Oct 18
Full
Oct 26
Last Quarter
Nov 3
New

Hourly Weather History & Observations

Time (EDT) Temp. Dew Point Humidity Pressure Visibility Wind Dir Wind Speed Gust Speed Precip Events Conditions
12:15 AM 48.2 °F 44.6 °F 87% 30.34 in 10.0 mi NE 6.9 mph - N/A   Overcast
12:55 AM 48.2 °F 44.6 °F 87% 30.33 in 10.0 mi ENE 6.9 mph - N/A   Overcast
1:15 AM 48.2 °F 46.4 °F 93% 30.33 in 10.0 mi ENE 5.8 mph - N/A   Overcast
1:35 AM 48.2 °F 46.4 °F 93% 30.33 in 10.0 mi NE 6.9 mph - N/A   Overcast
1:55 AM 50.0 °F 46.4 °F 87% 30.33 in 10.0 mi NE 6.9 mph - N/A   Overcast
2:15 AM 50.0 °F 46.4 °F 87% 30.32 in 10.0 mi NE 6.9 mph - N/A   Overcast
2:35 AM 50.0 °F 48.2 °F 94% 30.32 in 10.0 mi NE 6.9 mph - N/A   Overcast
2:55 AM 50.0 °F 48.2 °F 94% 30.31 in 10.0 mi NE 6.9 mph - N/A   Overcast
3:15 AM 50.0 °F 48.2 °F 94% 30.31 in 10.0 mi ENE 5.8 mph - N/A   Overcast
3:35 AM 50.0 °F 48.2 °F 94% 30.31 in 10.0 mi NE 5.8 mph - N/A   Overcast
3:55 AM 51.8 °F 48.2 °F 88% 30.30 in 10.0 mi NE 8.1 mph - N/A   Overcast
4:15 AM 50.0 °F 48.2 °F 94% 30.30 in 10.0 mi NE 8.1 mph - N/A   Overcast
4:35 AM 50.0 °F 48.2 °F 94% 30.30 in 10.0 mi ENE 8.1 mph - N/A   Overcast
4:55 AM 51.8 °F 48.2 °F 88% 30.30 in 10.0 mi ENE 5.8 mph - N/A   Overcast
5:15 AM 51.8 °F 50.0 °F 94% 30.30 in 10.0 mi ENE 4.6 mph - N/A   Overcast
5:35 AM 51.8 °F 50.0 °F 94% 30.30 in 10.0 mi ENE 5.8 mph - N/A   Overcast
5:55 AM 51.8 °F 48.2 °F 88% 30.29 in 10.0 mi ENE 8.1 mph - N/A   Overcast
6:15 AM 51.8 °F 48.2 °F 88% 30.30 in 10.0 mi ENE 6.9 mph - N/A   Overcast
6:35 AM 51.8 °F 48.2 °F 88% 30.30 in 10.0 mi East 5.8 mph - N/A   Overcast
6:55 AM 51.8 °F 50.0 °F 94% 30.29 in 10.0 mi ENE 8.1 mph - N/A   Overcast
7:15 AM 53.6 °F 50.0 °F 88% 30.30 in 10.0 mi ENE 6.9 mph - N/A   Overcast
7:35 AM 53.6 °F 50.0 °F 88% 30.29 in 10.0 mi ENE 9.2 mph - N/A   Mostly Cloudy
7:55 AM 53.6 °F 51.8 °F 94% 30.30 in 10.0 mi ENE 5.8 mph - N/A   Scattered Clouds
8:15 AM 55.4 °F 51.8 °F 88% 30.29 in 10.0 mi ENE 9.2 mph - N/A   Mostly Cloudy
8:35 AM 55.4 °F 51.8 °F 88% 30.29 in 10.0 mi ENE 8.1 mph - N/A   Scattered Clouds
8:55 AM 57.2 °F 53.6 °F 88% 30.29 in 10.0 mi ENE 10.4 mph - N/A   Partly Cloudy
9:15 AM 59.0 °F 53.6 °F 82% 30.28 in 10.0 mi ENE 12.7 mph 19.6 mph N/A   Partly Cloudy
9:35 AM 59.0 °F 53.6 °F 82% 30.29 in 10.0 mi ENE 8.1 mph - N/A   Clear
9:55 AM 62.6 °F 53.6 °F 72% 30.29 in 10.0 mi ENE 9.2 mph - N/A   Clear
10:15 AM 60.8 °F 53.6 °F 77% 30.29 in 10.0 mi ENE 8.1 mph - N/A   Scattered Clouds
10:35 AM 62.6 °F 53.6 °F 72% 30.28 in 10.0 mi ENE 6.9 mph - N/A   Mostly Cloudy
10:55 AM 62.6 °F 53.6 °F 72% 30.28 in 10.0 mi ENE 9.2 mph - N/A   Overcast
11:15 AM 62.6 °F 55.4 °F 77% 30.28 in 10.0 mi NE 11.5 mph - N/A   Mostly Cloudy
11:35 AM 62.6 °F 55.4 °F 77% 30.28 in 10.0 mi ENE 8.1 mph - N/A   Mostly Cloudy
11:55 AM 62.6 °F 55.4 °F 77% 30.26 in 10.0 mi NE 11.5 mph - N/A   Scattered Clouds
12:15 PM 62.6 °F 55.4 °F 77% 30.25 in 10.0 mi NE 10.4 mph - N/A   Clear
12:35 PM 64.4 °F 55.4 °F 73% 30.25 in 10.0 mi NE 10.4 mph 17.3 mph N/A   Partly Cloudy
12:55 PM 64.4 °F 55.4 °F 73% 30.24 in 10.0 mi NE 11.5 mph 17.3 mph N/A   Partly Cloudy
1:15 PM 64.4 °F 55.4 °F 73% 30.24 in 10.0 mi NE 11.5 mph - N/A   Partly Cloudy
1:35 PM 64.4 °F 55.4 °F 73% 30.24 in 10.0 mi NE 12.7 mph - N/A   Partly Cloudy
1:55 PM 62.6 °F 55.4 °F 77% 30.23 in 10.0 mi NE 13.8 mph - N/A   Partly Cloudy
2:15 PM 62.6 °F 55.4 °F 77% 30.23 in 10.0 mi NE 10.4 mph - N/A   Clear
2:35 PM 62.6 °F 55.4 °F 77% 30.23 in 10.0 mi ENE 9.2 mph - N/A   Clear
2:55 PM 62.6 °F 55.4 °F 77% 30.23 in 10.0 mi NE 10.4 mph - N/A   Clear
3:15 PM 60.8 °F 55.4 °F 82% 30.21 in 10.0 mi NE 13.8 mph - N/A   Scattered Clouds
3:35 PM 59.0 °F 55.4 °F 88% 30.20 in 10.0 mi NE 12.7 mph 18.4 mph N/A   Scattered Clouds
3:55 PM 59.0 °F 55.4 °F 88% 30.20 in 10.0 mi NE 10.4 mph - N/A   Partly Cloudy
4:15 PM 59.0 °F 55.4 °F 88% 30.21 in 10.0 mi NE 10.4 mph - N/A   Scattered Clouds
4:35 PM 59.0 °F 55.4 °F 88% 30.20 in 10.0 mi NE 11.5 mph - N/A   Scattered Clouds
4:55 PM 59.0 °F 55.4 °F 88% 30.20 in 10.0 mi NE 11.5 mph - N/A   Mostly Cloudy
5:15 PM 59.0 °F 55.4 °F 88% 30.20 in 10.0 mi NE 13.8 mph 18.4 mph N/A   Mostly Cloudy
5:35 PM 59.0 °F 55.4 °F 88% 30.20 in 10.0 mi NE 11.5 mph - N/A   Overcast
5:55 PM 59.0 °F 55.4 °F 88% 30.19 in 10.0 mi NE 15.0 mph - N/A   Overcast
6:15 PM 57.2 °F 55.4 °F 94% 30.18 in 10.0 mi NE 13.8 mph 17.3 mph N/A   Overcast
6:35 PM 57.2 °F 55.4 °F 94% 30.19 in 10.0 mi ENE 10.4 mph 18.4 mph N/A   Overcast
6:55 PM 57.2 °F 55.4 °F 94% 30.19 in 10.0 mi NE 13.8 mph 19.6 mph N/A   Overcast
7:15 PM 57.2 °F 55.4 °F 94% 30.19 in 10.0 mi NE 13.8 mph - N/A   Overcast
7:35 PM 57.2 °F 55.4 °F 94% 30.18 in 10.0 mi NE 13.8 mph 18.4 mph N/A   Overcast
7:55 PM 57.2 °F 55.4 °F 94% 30.18 in 10.0 mi NE 12.7 mph 20.7 mph N/A   Overcast
8:15 PM 57.2 °F 55.4 °F 94% 30.17 in 10.0 mi NE 10.4 mph 18.4 mph N/A   Overcast
8:35 PM 57.2 °F 55.4 °F 94% 30.17 in 10.0 mi NE 10.4 mph - N/A   Overcast
8:55 PM 57.2 °F 55.4 °F 94% 30.17 in 10.0 mi NE 11.5 mph 16.1 mph N/A   Overcast
9:15 PM 57.2 °F 55.4 °F 94% 30.17 in 10.0 mi NE 10.4 mph - N/A   Overcast
9:35 PM 57.2 °F 55.4 °F 94% 30.17 in 10.0 mi NE 11.5 mph - N/A   Overcast
9:55 PM 57.2 °F 55.4 °F 94% 30.17 in 10.0 mi NE 10.4 mph - N/A   Overcast
10:15 PM 57.2 °F 55.4 °F 94% 30.17 in 10.0 mi NE 13.8 mph 19.6 mph N/A   Overcast
10:35 PM 57.2 °F 55.4 °F 94% 30.17 in 10.0 mi NE 12.7 mph - N/A   Overcast
10:55 PM 57.2 °F 55.4 °F 94% 30.16 in 10.0 mi NE 13.8 mph 19.6 mph N/A   Overcast
11:15 PM 57.2 °F 55.4 °F 94% 30.16 in 10.0 mi NE 11.5 mph - N/A   Overcast
11:35 PM 57.2 °F 55.4 °F 94% 30.14 in 10.0 mi NE 11.5 mph 16.1 mph N/A   Overcast
11:55 PM 57.2 °F 55.4 °F 94% 30.14 in 10.0 mi NE 13.8 mph 17.3 mph N/A   Overcast